User: anonymous   Login
Location: Caltech
(34.1382°N, 118.1253°W)
Time: 12:59:51
(UTC-07:00)
Language:

Iridium 12 - Orbit

View from above orbital plane
View from above orbital plane
View from above satellite
View from above satellite

Ground track
Ground track

The orbit data is extracted from the following two-line orbital elements,

1 24837U 97030B   16152.42118439  .00000006  00000-0 -50570-5 0  9999
2 24837  86.3957 149.6993 0002245  83.6307  74.4833 14.34217364992223
Epoch (UTC): 31 May 2016 10:06:30
Eccentricity: 0.0002245
inclination: 86.3957°
perigee height: 776 km
apogee height: 779 km
right ascension of ascending node: 149.6993°
argument of perigee: 83.6307°
revolutions per day: 14.34217364
mean anomaly at epoch: 74.4833°
orbit number at epoch: 99222

The dashed part of the orbit path shows where the satellite is in the earth's shadow,  

DLR